GPM-CORE

Last updated on Sun Dec 14 2025 00:02:32 GMT+0000 (Coordinated Universal Time)

1 39574U 14009C 25347.20878569 .00012324 00000+0 26911-3 0 9991 2 39574 64.9734 211.1097 0009819 245.2990 114.7128 15.44477433669087
UTC large
Height (km)
Speed (km/s)
/
Latitude / Longitude
Inclination (degrees)
Orbital Period (minutes)
Azimuth
Elevation
Range (km)
Doppler Factor

Next 0 passes for location: London (51.5072 / 0.1276)

Sorry there are no passes over London.